Regional Weather Roundup
Issued by NWS Wilmington, NC

Home | Current Version | Previous Version | Text Only | Print | Product List | Glossary On
Versions: 1 2 3 4 5 6 7 8 9 10 11 12 13 14 15 16 17 18 19 20 21 22 23 24 25 26 27 28 29 30 31 32 33 34 35 36 37 38 39 40 41 42 43 44 45 46 47 48 49 50
000
ASUS42 KILM 290910
RWRILM
RWRILM
REGIONAL HOURLY WEATHER ROUNDUP
NATIONAL WEATHER SERVICE WILMINGTON NC
500 AM EDT TUE JUL 29 2014

NOTE: "FAIR" INDICATES FEW OR NO CLOUDS BELOW 12,000 FEET WITH NO
SIGNIFICANT WEATHER AND/OR OBSTRUCTIONS TO VISIBILITY.

...............WFO WILMINGTON COUNTY WARNING AREA...............

......COASTAL NC AND SC COUNTIES......

CITY           SKY/WX    TMP DP  RH WIND       PRES   REMARKS
WILMINGTON     PTCLDY    71  63  75 NE8       29.85S
SOUTHPORT      PTCLDY    73  65  78 N6        29.85R
N MYRTLE BEACH PTCLDY    72  67  84 N7        29.85R
MYRTLE BEACH   MOCLDY    73  64  73 N10       29.85R

......INLAND NC AND SC COUNTIES.......

CITY           SKY/WX    TMP DP  RH WIND       PRES   REMARKS
LUMBERTON      PTCLDY    70  62  76 CALM      29.88R
ELIZABETHTOWN  PTCLDY    69  64  85 CALM      29.88R
WHITEVILLE     MOCLDY    70  64  80 CALM      29.87R
FLORENCE       MOCLDY    71  61  70 N7        29.89R
DARLINGTON     PTCLDY    68  59  73 N6        29.91R

....................REST OF NORTH CAROLINA......................

.........EASTERN NC.........

CITY           SKY/WX    TMP DP  RH WIND       PRES   REMARKS
CAPE HATTERAS  MOCLDY    78  63  59 NE3       29.85R
JACKSONVILLE   CLEAR     66  61  82 NW3       29.88R
MOREHEAD CITY  MOCLDY    73  65  75 NW9       29.87R
KENANSVILLE    PTCLDY    66  61  82 CALM      29.89R
NEW BERN       PTCLDY    70  62  76 CALM      29.88R
ELIZABETH CITY CLEAR     70  60  70 N8        29.86R

.........CENTRAL NC.........

CITY           SKY/WX    TMP DP  RH WIND       PRES   REMARKS
RALEIGH DURHAM MOCLDY    64  57  78 CALM      29.91R
ROCKY MOUNT    MOCLDY    67  58  72 NW5       29.89R
ROANOKE RAPIDS NOT AVBL
FAYETTEVILLE   CLOUDY    71  59  65 N7        29.88R
HOFFMAN        PTCLDY    67  59  74 NW5       29.91R

.........WESTERN NC.........

CITY           SKY/WX    TMP DP  RH WIND       PRES   REMARKS
CHARLOTTE      MOCLDY    67  55  65 N5        29.92R
GREENSBORO     CLEAR     62  55  77 CALM      29.92R
HICKORY        NOT AVBL
BOONE          NOT AVBL
ASHEVILLE      NOT AVBL

.....................REST OF SOUTH CAROLINA.....................

.........EASTERN SC.........

CITY           SKY/WX    TMP DP  RH WIND       PRES   REMARKS
CHARLESTON     CLEAR     75  64  68 N8        29.86R
BEAUFORT MCAS  PTCLDY    75  67  76 N7        29.87R
HILTON HEAD    NOT AVBL

.........CENTRAL SC.........

CITY           SKY/WX    TMP DP  RH WIND       PRES   REMARKS
COLUMBIA       CLOUDY    75  59  57 CALM      29.90R
ORANGEBURG     CLEAR     73  59  61 N6        29.89R
SUMTER SHAW    PTCLDY    68  60  76 NE5       29.88R

.........WESTERN SC.........

CITY           SKY/WX    TMP DP  RH WIND       PRES   REMARKS
GREENVILLE     NOT AVBL
ROCK HILL      CLOUDY    65  60  84 N3        29.92R
ANDERSON       CLEAR     63  60  90 CALM      29.93R
CLEMSON        NOT AVBL
GREENWOOD      CLEAR     63  60  90 CALM      29.93S


...................COASTAL AND OFFSHORE REPORTS..................

................LOCAL PIERS AND NC RESERVE................


STATION/POSITION TIME  SKY/WX   TEMP    WIND        PRES    VSBY
                                AIR SEA DIR/SP/G
                 (UTC)          (F)     (DEG/KT/KT) (MB)    (MI)
JOHNY MRCER PIER 0900            73 82   10/ 10/ 13 1010.4R
NC RESRV MASNBRO 0800            72      20/  4     1010.0S
OCEAN CREST PIER NOT AVBL
SPRINGMAID  PIER 0900            74 83  360/  9/ 13 1010.7R


................COASTAL AND OFFSHORE BUOYS................


STATION/POSITION TIME  SKY/WX   TEMP    WIND        PRES    VSBY
                                AIR SEA DIR/SP/G
                 (UTC)          (F)     (DEG/KT/KT) (MB)    (MI)
DIMNDSHOAL 41025 0900                   VRB  6/  8  1010.4R
WVE H/P(F/S)=  3/ 7 WND WVE H/P(F/S)=  2/ 4 SWL H/P/D(F/S/D)=  3/170/ 7

CAPE LOOKOUT     0800            76      10/ 10/ 11 1010.3R
ONSLOW BAY 41036 0900            80 81   20/ 16/ 17 1010.6R
WVE H/P(F/S)=  4/ 6 WND WVE H/P(F/S)=  3/ 3 SWL H/P/D(F/S/D)=  3/200/ 6

5 WRITEBCH 41038 0800            76 82   30/ 19/ 23   N/A
MASONBORO  41110 0900               82                N/A
WVE H/P(F/S)=  3/ 7 WND WVE H/P(F/S)=  3/ 7

WILM HARBR 41108 NOT AVBL
27WRITEBCH 41037 NOT AVBL
FRYING PAN 41013 NOT AVBL
SUNST NRSH 41024 0800            76      10/ 16/ 17 1010.3R
CAPRS NRSH 41029 0800            79      20/ 14/ 16   N/A
EDISTO     41004 0900            83 84   10/ 14/ 16 1008.9R
WVE H/P(F/S)=  4/ 6 WND WVE H/P(F/S)=  3/ 6 SWL H/P/D(F/S/D)=  2/ 6



..........OFFSHORE BUOYS BEYOND 100 NM OFFSHORE...........
.....IN A TRIANGLE---HAT TO BERMUDA TO BAHAMAS TO HAT.....


STATION/POSITION TIME  SKY/WX   TEMP    WIND        PRES    VSBY
                                AIR SEA DIR/SP/G
                 (UTC)          (F)     (DEG/KT/KT) (MB)    (MI)
150E HAT   41001 NOT AVBL
W BERMUDA  41048 0848            82 82  200/ 19/ 21 1015.6S
WVE H/P(F/S)=  6/ 7 WND WVE H/P(F/S)=  7/ 7

ATLANTIC S 41049 0757            81 83  140/ 17/ 19 1018.9
WVE H/P(F/S)=  4/ 8 WND WVE H/P(F/S)=  3/ 6 SWL H/P/D(F/S/D)=  2/120/ 8

E BAHAMAS  41046 0817            80 84  100/  6/  8 1017.0F
WVE H/P(F/S)=  3/ 9 WND WVE H/P(F/S)=  2/ 4 SWL H/P/D(F/S/D)=  3/130/ 9

NE BAHAMAS 41047 0758            83 85  190/ 10/ 12 1016.4F
WVE H/P(F/S)=  4/ 9 WND WVE H/P(F/S)=  2/ 4 SWL H/P/D(F/S/D)=  3/120/ 9

120E CANVRL41010 0900            84 84  250/ 14/ 17 1012.8R
WVE H/P(F/S)=  4/ 5 WND WVE H/P(F/S)=  3/ 5 SWL H/P/D(F/S/D)=  2/120/ 8


END


USA.gov is the U.S. government's official web portal to all federal, state and local government web resources and services.